• In Hungary
  • List of Countries
  • For 7 days
  • Water Temperature
  • Satellite Maps
  • Weather Map
  • News
  • Weather Widgets
  • user-avatar
    Login

    Hourly Weather Vyskodnya

    Today, 21 September, Friday

    Time Temperature Precipitation Wind Pressure Humidity
    00:00 +15°C° 0 mm 2 mps 747 mmHg 93%
    01:00 +14°C° 0 mm 2 mps 747 mmHg 94%
    02:00 +14°C° 0 mm 2 mps 747 mmHg 94%
    03:00 +14°C° 0 mm 2 mps 747 mmHg 95%
    04:00 +14°C° 0 mm 2 mps 747 mmHg 95%
    05:00 +14°C° 0 mm 2 mps 747 mmHg 96%
    06:00 +15°C° 0 mm 2 mps 748 mmHg 91%
    07:00 +16°C° 0 mm 2 mps 748 mmHg 87%
    08:00 +18°C° 0 mm 2 mps 748 mmHg 82%
    09:00 +19°C° 0 mm 3 mps 748 mmHg 76%
    10:00 +21°C° 0 mm 3 mps 748 mmHg 70%
    11:00 +24°C° 0 mm 3 mps 748 mmHg 65%
    12:00 +24°C° 0 mm 3 mps 748 mmHg 64%
    13:00 +25°C° 0 mm 3 mps 748 mmHg 63%
    14:00 +25°C° 0 mm 3 mps 748 mmHg 62%
    15:00 +24°C° 0.5 mm 3 mps 748 mmHg 69%
    16:00 +22°C° 0.5 mm 3 mps 747 mmHg 75%
    17:00 +21°C° 0.5 mm 2 mps 747 mmHg 82%
    18:00 +20°C° 0.1 mm 2 mps 747 mmHg 84%
    19:00 +19°C° 0.1 mm 2 mps 747 mmHg 87%
    20:00 +18°C° 0.1 mm 2 mps 747 mmHg 90%
    21:00 +18°C° 0 mm 2 mps 747 mmHg 91%
    22:00 +17°C° 0 mm 2 mps 747 mmHg 91%
    23:00 +17°C° 0 mm 2 mps 747 mmHg 92%

    Tomorrow, 22 September, Saturday

    Time Temperature Precipitation Wind Pressure Humidity
    00:00 +16°C° 0 mm 3 mps 747 mmHg 93%
    01:00 +16°C° 0 mm 3 mps 746 mmHg 94%
    02:00 +16°C° 0 mm 3 mps 746 mmHg 95%
    03:00 +16°C° 0 mm 3 mps 746 mmHg 95%
    04:00 +16°C° 0 mm 3 mps 745 mmHg 95%
    05:00 +16°C° 0 mm 3 mps 745 mmHg 95%
    06:00 +17°C° 0 mm 4 mps 745 mmHg 90%
    07:00 +18°C° 0 mm 4 mps 744 mmHg 84%
    08:00 +19°C° 0 mm 5 mps 744 mmHg 79%
    09:00 +20°C° 0 mm 5 mps 743 mmHg 71%
    10:00 +22°C° 0 mm 6 mps 743 mmHg 63%
    11:00 +23°C° 0 mm 6 mps 743 mmHg 55%
    12:00 +23°C° 0 mm 6 mps 742 mmHg 53%
    13:00 +24°C° 0 mm 6 mps 742 mmHg 52%
    14:00 +24°C° 0 mm 6 mps 742 mmHg 50%
    15:00 +22°C° 0.5 mm 5 mps 742 mmHg 60%
    16:00 +20°C° 0.5 mm 5 mps 742 mmHg 69%
    17:00 +17°C° 0.5 mm 4 mps 742 mmHg 79%
    18:00 +16°C° 0 mm 3 mps 742 mmHg 82%
    19:00 +13°C° 0 mm 3 mps 742 mmHg 84%
    20:00 +13°C° 0 mm 2 mps 742 mmHg 87%
    21:00 +13°C° 0.1 mm 2 mps 742 mmHg 87%
    22:00 +12°C° 0.1 mm 2 mps 742 mmHg 88%
    23:00 +12°C° 0.1 mm 2 mps 742 mmHg 88%

    Day after tomorrow, 23 September, Sunday

    Time Temperature Precipitation Wind Pressure Humidity
    00:00 +12°C° 0.3 mm 2 mps 742 mmHg 89%
    01:00 +10°C° 0.3 mm 2 mps 742 mmHg 90%
    02:00 +10°C° 0.3 mm 2 mps 742 mmHg 92%
    03:00 +10°C° 0.8 mm 2 mps 742 mmHg 93%
    04:00 +10°C° 0.8 mm 2 mps 741 mmHg 94%
    05:00 +9°C° 0.8 mm 2 mps 741 mmHg 95%
    06:00 +9°C° 1.2 mm 2 mps 741 mmHg 95%
    07:00 +9°C° 1.2 mm 2 mps 740 mmHg 95%
    08:00 +9°C° 1.2 mm 2 mps 740 mmHg 94%
    09:00 +10°C° 0.8 mm 2 mps 740 mmHg 93%
    10:00 +10°C° 0.8 mm 2 mps 740 mmHg 92%
    11:00 +10°C° 0.8 mm 2 mps 739 mmHg 91%
    12:00 +12°C° 0.3 mm 2 mps 739 mmHg 88%
    13:00 +12°C° 0.3 mm 2 mps 739 mmHg 85%
    14:00 +13°C° 0.3 mm 2 mps 739 mmHg 82%
    15:00 +12°C° 0.2 mm 2 mps 739 mmHg 84%
    16:00 +12°C° 0.2 mm 2 mps 739 mmHg 85%
    17:00 +12°C° 0.2 mm 2 mps 739 mmHg 87%
    18:00 +10°C° 0.1 mm 2 mps 739 mmHg 89%
    19:00 +9°C° 0.1 mm 2 mps 739 mmHg 91%
    20:00 +8°C° 0.1 mm 2 mps 739 mmHg 93%
    21:00 +8°C° 0 mm 2 mps 739 mmHg 94%
    22:00 +7°C° 0 mm 2 mps 739 mmHg 94%
    23:00 +7°C° 0 mm 2 mps 739 mmHg 95%

    24 September, Monday

    Time Temperature Precipitation Wind Pressure Humidity
    00:00 +7°C° 0 mm 3 mps 739 mmHg 95%
    01:00 +7°C° 0 mm 3 mps 739 mmHg 96%
    02:00 +5°C° 0 mm 3 mps 739 mmHg 96%
    03:00 +5°C° 0 mm 3 mps 739 mmHg 96%
    04:00 +5°C° 0 mm 3 mps 739 mmHg 97%
    05:00 +5°C° 0 mm 3 mps 739 mmHg 97%
    06:00 +5°C° 0 mm 3 mps 739 mmHg 94%
    07:00 +7°C° 0 mm 3 mps 739 mmHg 92%
    08:00 +7°C° 0 mm 3 mps 739 mmHg 90%
    09:00 +8°C° 0 mm 3 mps 740 mmHg 88%
    10:00 +8°C° 0 mm 3 mps 740 mmHg 87%
    11:00 +8°C° 0 mm 3 mps 740 mmHg 85%
    12:00 +9°C° 0 mm 2 mps 740 mmHg 82%
    13:00 +9°C° 0 mm 2 mps 740 mmHg 79%
    14:00 +10°C° 0 mm 2 mps 740 mmHg 76%
    15:00 +10°C° 0 mm 1 mps 739 mmHg 79%
    16:00 +10°C° 0 mm 1 mps 739 mmHg 82%
    17:00 +9°C° 0 mm 1 mps 739 mmHg 84%
    18:00 +9°C° 0.1 mm 1 mps 739 mmHg 87%
    19:00 +7°C° 0.1 mm 2 mps 738 mmHg 90%
    20:00 +7°C° 0.1 mm 2 mps 738 mmHg 92%
    21:00 +7°C° 0.4 mm 2 mps 738 mmHg 93%
    22:00 +7°C° 0.4 mm 3 mps 737 mmHg 93%
    23:00 +7°C° 0.4 mm 3 mps 737 mmHg 94%

    25 September, Tuesday

    Time Temperature Precipitation Wind Pressure Humidity
    00:00 +6°C° 0.7 mm 4 mps 737 mmHg 93%
    01:00 +6°C° 0.7 mm 4 mps 736 mmHg 93%
    02:00 +6°C° 0.7 mm 5 mps 736 mmHg 93%
    03:00 +6°C° 0.9 mm 5 mps 735 mmHg 93%
    04:00 +6°C° 0.9 mm 5 mps 735 mmHg 92%
    05:00 +5°C° 0.9 mm 6 mps 735 mmHg 92%
    06:00 +5°C° 1.1 mm 6 mps 735 mmHg 92%
    07:00 +5°C° 1.1 mm 6 mps 734 mmHg 92%
    08:00 +5°C° 1.1 mm 6 mps 734 mmHg 91%
    09:00 +5°C° 1.2 mm 6 mps 734 mmHg 91%
    10:00 +5°C° 1.2 mm 7 mps 735 mmHg 90%
    11:00 +5°C° 1.2 mm 7 mps 735 mmHg 90%
    12:00 +5°C° 1.4 mm 7 mps 735 mmHg 89%
    13:00 +5°C° 1.4 mm 7 mps 735 mmHg 89%
    14:00 +5°C° 1.4 mm 7 mps 735 mmHg 88%
    15:00 +5°C° 1.2 mm 7 mps 736 mmHg 88%
    16:00 +5°C° 1.2 mm 7 mps 736 mmHg 87%
    17:00 +5°C° 1.2 mm 7 mps 737 mmHg 87%
    18:00 +5°C° 0.9 mm 7 mps 737 mmHg 87%
    19:00 +4°C° 0.9 mm 7 mps 737 mmHg 87%
    20:00 +4°C° 0.9 mm 7 mps 738 mmHg 87%
    21:00 +4°C° 0.4 mm 7 mps 738 mmHg 87%
    22:00 +4°C° 0.4 mm 6 mps 738 mmHg 88%
    23:00 +4°C° 0.4 mm 6 mps 739 mmHg 88%

    26 September, Wednesday

    Time Temperature Precipitation Wind Pressure Humidity
    00:00 +4°C° 0.2 mm 6 mps 739 mmHg 88%
    01:00 +3°C° 0.2 mm 6 mps 740 mmHg 88%
    02:00 +3°C° 0.2 mm 6 mps 741 mmHg 88%
    03:00 +3°C° 0.1 mm 6 mps 741 mmHg 88%
    04:00 +3°C° 0.1 mm 5 mps 742 mmHg 88%
    05:00 +2°C° 0.1 mm 5 mps 743 mmHg 87%
    06:00 +2°C° 0 mm 5 mps 743 mmHg 86%
    07:00 +2°C° 0 mm 5 mps 744 mmHg 85%
    08:00 +2°C° 0 mm 5 mps 745 mmHg 84%
    09:00 +3°C° 0 mm 5 mps 745 mmHg 79%
    10:00 +5°C° 0 mm 5 mps 746 mmHg 75%
    11:00 +5°C° 0 mm 5 mps 747 mmHg 70%
    12:00 +6°C° 0 mm 5 mps 747 mmHg 65%
    13:00 +6°C° 0 mm 5 mps 748 mmHg 59%
    14:00 +7°C° 0 mm 5 mps 748 mmHg 54%
    15:00 +6°C° 0 mm 4 mps 748 mmHg 57%
    16:00 +5°C° 0 mm 3 mps 749 mmHg 59%
    17:00 +5°C° 0 mm 2 mps 749 mmHg 61%
    18:00 +4°C° 0 mm 2 mps 749 mmHg 65%
    19:00 +3°C° 0 mm 2 mps 750 mmHg 69%
    20:00 +3°C° 0 mm 2 mps 750 mmHg 73%
    21:00 +2°C° 0 mm 2 mps 750 mmHg 75%
    22:00 +2°C° 0 mm 2 mps 750 mmHg 78%
    23:00 +2°C° 0 mm 2 mps 751 mmHg 81%
    Show more